This is the latest recevied weather packets stored in our database for station/object K7ZQU-7. If no packets are shown the sender has not sent any weather packets the latest 10 day(s).
| Time | Temp. | Humidity | Pressure | Rain* | Wind** | Luminosity | Snow |
|---|---|---|---|---|---|---|---|
| 1788124370 | 17.78° C | 16% | 1018.4 hPa | 0 mm | 0.89 m/s, 94° | - | - |
| 1788123471 | 17.78° C | 20% | 1018.4 hPa | 0 mm | 0.89 m/s, 256° | - | - |
| 1788123172 | 17.22° C | 20% | 1018.4 hPa | 0 mm | 1.34 m/s, 336° | - | - |
| 1788122283 | 17.78° C | 20% | 1018.4 hPa | 0 mm | 0 m/s | - | - |
| 1788121973 | 17.22° C | 21% | 1018.4 hPa | 0 mm | 0.89 m/s, 283° | - | - |
| 1788121674 | 17.22° C | 21% | 1018.3 hPa | 0 mm | 0.89 m/s, 314° | - | - |
| 1788121376 | 17.22° C | 23% | 1018.3 hPa | 0 mm | 1.79 m/s, 308° | - | - |
| 1788120775 | 17.22° C | 22% | 1018.3 hPa | 0 mm | 1.79 m/s, 210° | - | - |
| 1788120476 | 17.22° C | 23% | 1018.3 hPa | 0 mm | 1.34 m/s, 328° | - | - |
| 1788120177 | 16.67° C | 24% | 1018.3 hPa | 0 mm | 1.34 m/s, 281° | - | - |
| 1788119878 | 16.67° C | 28% | 1018.3 hPa | 0 mm | 1.34 m/s, 288° | - | - |
| 1788119579 | 16.67° C | 29% | 1018.3 hPa | 0 mm | 2.24 m/s, 314° | - | - |
| 1788119277 | 16.11° C | 30% | 1018.4 hPa | 0 mm | 1.79 m/s, 307° | - | - |
| 1788118978 | 16.11° C | 32% | 1018.3 hPa | 0 mm | 0.45 m/s, 215° | - | - |
| 1788118679 | 15.56° C | 33% | 1018.3 hPa | 0 mm | 1.79 m/s, 302° | - | - |
| 1788118380 | 15.56° C | 33% | 1018.3 hPa | 0 mm | 0.45 m/s, 293° | - | - |
| 1788118081 | 16.11° C | 33% | 1018.2 hPa | 0 mm | 0 m/s | - | - |
| 1788117779 | 16.11° C | 35% | 1018.3 hPa | 0 mm | 1.34 m/s, 308° | - | - |
| 1788117480 | 16.11° C | 33% | 1018.3 hPa | 0 mm | 1.34 m/s, 76° | - | - |
| 1788116882 | 16.11° C | 35% | 1018.3 hPa | 0 mm | 1.79 m/s, 288° | - | - |
| 1788116583 | 15.56° C | 36% | 1018.3 hPa | 0 mm | 0.89 m/s, 308° | - | - |
| 1788116281 | 15.56° C | 37% | 1018.3 hPa | 0 mm | 2.24 m/s, 330° | - | - |
| 1788115982 | 15° C | 39% | 1018.2 hPa | 0 mm | 0.45 m/s, 250° | - | - |
| 1788115683 | 14.44° C | 40% | 1018.3 hPa | 0 mm | 0.45 m/s, 347° | - | - |
| 1788115384 | 13.89° C | 42% | 1018.3 hPa | 0 mm | 0.89 m/s, 0° | - | - |
* Rain latest hour (hover to see other rain measurements)
** Current wind speed in m/s (hover to see current wind gust speed)